Time,TemperatureF,DewpointF,PressureIn,WindDirection,WindDirectionDegrees,WindSpeedMPH,WindSpeedGustMPH,Humidity,HourlyPrecipIn,Conditions,Clouds,dailyrainin,SoftwareType,DateUTC
2013-01-28 00:02:00,44.0,42.0,30.15,South,177,0.0,0.0,93,0.00,,,0.24,,2013-01-28 06:02:00,
2013-01-28 00:11:00,44.0,42.0,30.15,South,177,0.0,0.0,93,0.00,,,0.24,,2013-01-28 06:11:00,
2013-01-28 00:22:00,43.0,41.0,30.14,SSW,200,0.0,0.0,93,0.00,,,0.24,,2013-01-28 06:22:00,
2013-01-28 00:32:00,44.0,42.0,30.14,SE,139,0.0,0.0,93,0.00,,,0.24,,2013-01-28 06:32:00,
2013-01-28 00:42:00,44.0,42.0,30.14,SE,139,0.0,0.0,93,0.00,,,0.24,,2013-01-28 06:42:00,
2013-01-28 00:52:00,44.0,42.0,30.14,SSE,167,0.0,0.0,93,0.01,,,0.25,,2013-01-28 06:52:00,
2013-01-28 01:02:00,44.0,42.0,30.14,SSE,167,0.0,0.0,93,0.01,,,0.25,,2013-01-28 07:02:00,
2013-01-28 01:11:00,44.0,42.0,30.14,SSE,167,0.0,0.0,93,0.01,,,0.25,,2013-01-28 07:11:00,
2013-01-28 01:21:00,45.0,43.0,30.14,SSE,152,0.0,0.0,92,0.01,,,0.25,,2013-01-28 07:21:00,
2013-01-28 01:32:00,45.0,43.0,30.14,SSE,147,0.0,2.0,92,0.01,,,0.25,,2013-01-28 07:32:00,
2013-01-28 01:42:00,45.0,43.0,30.14,SSE,147,0.0,2.0,92,0.01,,,0.25,,2013-01-28 07:42:00,
2013-01-28 01:51:00,45.0,43.0,30.14,SSE,152,1.0,8.0,92,0.00,,,0.25,,2013-01-28 07:51:00,
2013-01-28 02:01:00,46.0,44.0,30.14,SE,146,0.0,7.0,91,0.00,,,0.25,,2013-01-28 08:01:00,
2013-01-28 02:11:00,46.0,44.0,30.14,SE,146,0.0,7.0,91,0.00,,,0.25,,2013-01-28 08:11:00,
2013-01-28 02:21:00,46.0,44.0,30.14,SSE,154,0.0,7.0,91,0.00,,,0.25,,2013-01-28 08:21:00,
2013-01-28 02:32:00,46.0,44.0,30.14,SE,138,0.0,6.0,91,0.00,,,0.25,,2013-01-28 08:32:00,
2013-01-28 02:42:00,46.0,44.0,30.14,SE,138,0.0,6.0,91,0.00,,,0.25,,2013-01-28 08:42:00,
2013-01-28 02:52:00,46.0,44.0,30.14,SE,138,0.0,6.0,91,0.00,,,0.25,,2013-01-28 08:52:00,
2013-01-28 03:02:00,47.0,44.0,30.13,SSW,200,0.0,7.0,89,0.00,,,0.25,,2013-01-28 09:02:00,
2013-01-28 03:11:00,47.0,44.0,30.13,SSW,200,0.0,7.0,89,0.00,,,0.25,,2013-01-28 09:11:00,
2013-01-28 03:22:00,47.0,44.0,30.12,SSW,202,0.0,7.0,89,0.00,,,0.25,,2013-01-28 09:22:00,
2013-01-28 03:32:00,47.0,44.0,30.11,SSE,161,3.0,11.0,89,0.00,,,0.25,,2013-01-28 09:32:00,
2013-01-28 03:42:00,47.0,44.0,30.11,SSE,161,3.0,11.0,89,0.00,,,0.25,,2013-01-28 09:42:00,
2013-01-28 03:51:00,47.0,44.0,30.10,SSW,192,4.0,12.0,88,0.00,,,0.25,,2013-01-28 09:51:00,
2013-01-28 04:02:00,48.0,44.0,30.10,SSE,168,0.0,12.0,87,0.00,,,0.25,,2013-01-28 10:02:00,
2013-01-28 04:11:00,48.0,44.0,30.10,SSE,168,0.0,12.0,87,0.00,,,0.25,,2013-01-28 10:11:00,
2013-01-28 04:21:00,48.0,44.0,30.11,South,170,2.0,9.0,87,0.00,,,0.25,,2013-01-28 10:21:00,
2013-01-28 04:32:00,48.0,44.0,30.11,South,170,2.0,9.0,87,0.00,,,0.25,,2013-01-28 10:32:00,
2013-01-28 04:41:00,48.0,44.0,30.11,South,170,2.0,9.0,87,0.00,,,0.25,,2013-01-28 10:41:00,
2013-01-28 04:51:00,49.0,45.0,30.10,South,188,7.0,13.0,85,0.00,,,0.25,,2013-01-28 10:51:00,
2013-01-28 05:02:00,49.0,44.0,30.09,SSE,167,8.0,14.0,84,0.00,,,0.25,,2013-01-28 11:02:00,
2013-01-28 05:11:00,49.0,44.0,30.09,SSE,167,8.0,14.0,84,0.00,,,0.25,,2013-01-28 11:11:00,
2013-01-28 05:22:00,49.0,44.0,30.09,South,182,8.0,15.0,83,0.01,,,0.26,,2013-01-28 11:22:00,
2013-01-28 05:32:00,49.0,44.0,30.09,South,171,7.0,16.0,83,0.01,,,0.26,,2013-01-28 11:32:00,
2013-01-28 05:42:00,49.0,44.0,30.09,South,171,7.0,16.0,83,0.01,,,0.26,,2013-01-28 11:42:00,
2013-01-28 05:52:00,49.0,44.0,30.09,South,176,7.0,12.0,83,0.01,,,0.26,,2013-01-28 11:52:00,
2013-01-28 06:03:00,50.0,45.0,30.09,SSW,194,6.0,12.0,82,0.01,,,0.26,,2013-01-28 12:03:00,
2013-01-28 06:12:00,50.0,45.0,30.09,SSW,194,6.0,12.0,82,0.01,,,0.26,,2013-01-28 12:12:00,
2013-01-28 06:23:00,50.0,45.0,30.09,SSW,194,6.0,12.0,82,0.01,,,0.26,,2013-01-28 12:23:00,
2013-01-28 06:33:00,48.0,44.0,30.10,South,171,7.0,12.0,86,0.02,,,0.28,,2013-01-28 12:33:00,
2013-01-28 06:42:00,48.0,44.0,30.10,South,171,7.0,12.0,86,0.02,,,0.28,,2013-01-28 12:42:00,
2013-01-28 06:52:00,48.0,45.0,30.10,South,184,5.0,9.0,88,0.03,,,0.28,,2013-01-28 12:52:00,
2013-01-28 07:03:00,48.0,44.0,30.10,SSE,159,5.0,10.0,87,0.03,,,0.28,,2013-01-28 13:03:00,
2013-01-28 07:12:00,48.0,44.0,30.10,SSE,159,5.0,10.0,87,0.03,,,0.28,,2013-01-28 13:12:00,
2013-01-28 07:23:00,48.0,44.0,30.10,South,171,4.0,7.0,87,0.03,,,0.28,,2013-01-28 13:23:00,
2013-01-28 07:33:00,48.0,44.0,30.10,South,178,5.0,7.0,87,0.01,,,0.28,,2013-01-28 13:33:00,
2013-01-28 07:42:00,48.0,44.0,30.10,South,178,5.0,7.0,87,0.01,,,0.28,,2013-01-28 13:42:00,
2013-01-28 07:52:00,49.0,45.0,30.10,South,179,6.0,11.0,86,0.00,,,0.28,,2013-01-28 13:52:00,
2013-01-28 08:03:00,49.0,45.0,30.11,South,176,6.0,11.0,87,0.00,,,0.28,,2013-01-28 14:03:00,
2013-01-28 08:12:00,49.0,45.0,30.11,South,176,6.0,11.0,87,0.00,,,0.28,,2013-01-28 14:12:00,
2013-01-28 08:22:00,49.0,46.0,30.10,South,188,1.0,10.0,89,0.00,,,0.28,,2013-01-28 14:22:00,
2013-01-28 08:33:00,48.0,45.0,30.10,South,181,3.0,11.0,91,0.00,,,0.28,,2013-01-28 14:33:00,
2013-01-28 08:43:00,48.0,45.0,30.10,South,181,3.0,11.0,91,0.00,,,0.28,,2013-01-28 14:43:00,
2013-01-28 08:52:00,49.0,47.0,30.11,South,182,7.0,12.0,92,0.00,,,0.28,,2013-01-28 14:52:00,
2013-01-28 09:03:00,49.0,47.0,30.11,South,180,6.0,12.0,92,0.00,,,0.28,,2013-01-28 15:03:00,
2013-01-28 09:12:00,49.0,47.0,30.11,South,180,6.0,12.0,92,0.00,,,0.28,,2013-01-28 15:12:00,
2013-01-28 09:23:00,49.0,47.0,30.11,ESE,115,6.0,12.0,93,0.00,,,0.28,,2013-01-28 15:23:00,
2013-01-28 09:33:00,49.0,47.0,30.10,South,169,4.0,11.0,93,0.00,,,0.28,,2013-01-28 15:33:00,
2013-01-28 09:43:00,49.0,47.0,30.10,South,169,4.0,11.0,93,0.00,,,0.28,,2013-01-28 15:43:00,
2013-01-28 09:52:00,50.0,48.0,30.10,South,182,7.0,12.0,94,0.00,,,0.28,,2013-01-28 15:52:00,
2013-01-28 10:04:00,50.0,48.0,30.11,South,178,8.0,13.0,94,0.00,,,0.28,,2013-01-28 16:04:00,
2013-01-28 10:12:00,50.0,48.0,30.11,South,178,8.0,13.0,94,0.00,,,0.28,,2013-01-28 16:12:00,
2013-01-28 10:22:00,51.0,49.0,30.11,South,177,7.0,12.0,94,0.00,,,0.28,,2013-01-28 16:22:00,
2013-01-28 10:32:00,51.0,49.0,30.11,SSW,196,8.0,16.0,94,0.00,,,0.28,,2013-01-28 16:32:00,
2013-01-28 10:43:00,51.0,49.0,30.11,SSW,196,8.0,16.0,94,0.00,,,0.28,,2013-01-28 16:43:00,
2013-01-28 10:52:00,52.0,50.0,30.11,SSW,196,8.0,13.0,94,0.00,,,0.28,,2013-01-28 16:52:00,
2013-01-28 11:02:00,52.0,50.0,30.11,South,190,8.0,13.0,94,0.00,,,0.28,,2013-01-28 17:02:00,
2013-01-28 11:12:00,52.0,50.0,30.11,South,190,8.0,13.0,94,0.00,,,0.28,,2013-01-28 17:12:00,
2013-01-28 11:23:00,52.0,50.0,30.11,South,189,9.0,14.0,94,0.00,,,0.28,,2013-01-28 17:23:00,
2013-01-28 11:32:00,52.0,50.0,30.10,South,185,7.0,12.0,94,0.00,,,0.28,,2013-01-28 17:32:00,
2013-01-28 11:42:00,52.0,50.0,30.10,South,185,7.0,12.0,94,0.00,,,0.28,,2013-01-28 17:42:00,
2013-01-28 11:52:00,52.0,50.0,30.10,South,183,6.0,13.0,94,0.00,,,0.28,,2013-01-28 17:52:00,
2013-01-28 12:03:00,53.0,51.0,30.09,SSW,192,6.0,11.0,94,0.00,,,0.28,,2013-01-28 18:03:00,
2013-01-28 12:12:00,53.0,51.0,30.09,SSW,192,6.0,11.0,94,0.00,,,0.28,,2013-01-28 18:12:00,
2013-01-28 12:23:00,53.0,51.0,30.09,South,169,7.0,11.0,94,0.00,,,0.28,,2013-01-28 18:23:00,
2013-01-28 12:33:00,53.0,51.0,30.09,SSW,196,6.0,10.0,94,0.00,,,0.27,,2013-01-28 18:33:00,
2013-01-28 12:42:00,53.0,51.0,30.09,SSW,196,6.0,10.0,94,0.00,,,0.27,,2013-01-28 18:42:00,
2013-01-28 12:52:00,53.0,52.0,30.08,SSW,192,1.0,8.0,95,0.00,,,0.27,,2013-01-28 18:52:00,
2013-01-28 13:02:00,53.0,52.0,30.07,South,188,0.0,4.0,95,0.00,,,0.27,,2013-01-28 19:02:00,
2013-01-28 13:12:00,53.0,52.0,30.07,South,188,0.0,4.0,95,0.00,,,0.27,,2013-01-28 19:12:00,
2013-01-28 13:22:00,53.0,52.0,30.06,SSW,204,0.0,0.0,95,0.00,,,0.27,,2013-01-28 19:22:00,
2013-01-28 13:32:00,54.0,53.0,30.06,SSW,207,0.0,0.0,95,0.00,,,0.27,,2013-01-28 19:32:00,
2013-01-28 13:42:00,54.0,53.0,30.06,SSW,207,0.0,0.0,95,0.00,,,0.27,,2013-01-28 19:42:00,
2013-01-28 13:52:00,54.0,53.0,30.05,SSW,194,0.0,0.0,96,0.00,,,0.27,,2013-01-28 19:52:00,
2013-01-28 14:02:00,55.0,54.0,30.05,SSW,208,0.0,0.0,95,0.00,,,0.27,,2013-01-28 20:02:00,
2013-01-28 14:12:00,55.0,54.0,30.05,SSW,208,0.0,0.0,95,0.00,,,0.27,,2013-01-28 20:12:00,
2013-01-28 14:22:00,55.0,54.0,30.05,South,186,6.0,12.0,95,0.00,,,0.27,,2013-01-28 20:22:00,
2013-01-28 14:33:00,55.0,54.0,30.05,South,184,4.0,11.0,95,0.00,,,0.26,,2013-01-28 20:33:00,
2013-01-28 14:42:00,55.0,54.0,30.05,South,184,4.0,11.0,95,0.00,,,0.26,,2013-01-28 20:42:00,
2013-01-28 14:52:00,55.0,54.0,30.05,SSW,194,0.0,10.0,95,0.00,,,0.26,,2013-01-28 20:52:00,
2013-01-28 15:03:00,55.0,54.0,30.05,South,187,0.0,0.0,95,0.00,,,0.26,,2013-01-28 21:03:00,
2013-01-28 15:12:00,55.0,54.0,30.05,South,187,0.0,0.0,95,0.00,,,0.26,,2013-01-28 21:12:00,
2013-01-28 15:22:00,55.0,54.0,30.06,South,178,0.0,7.0,96,0.00,,,0.26,,2013-01-28 21:22:00,
2013-01-28 15:33:00,55.0,54.0,30.05,South,175,0.0,0.0,96,0.00,,,0.25,,2013-01-28 21:33:00,
2013-01-28 15:43:00,55.0,54.0,30.05,South,175,0.0,0.0,96,0.00,,,0.25,,2013-01-28 21:43:00,
2013-01-28 15:52:00,55.0,54.0,30.05,South,173,0.0,4.0,96,0.00,,,0.25,,2013-01-28 21:52:00,
2013-01-28 16:02:00,55.0,54.0,30.06,South,188,0.0,5.0,96,0.00,,,0.25,,2013-01-28 22:02:00,
2013-01-28 16:11:00,55.0,54.0,30.06,South,188,0.0,5.0,96,0.00,,,0.25,,2013-01-28 22:11:00,
2013-01-28 16:23:00,55.0,54.0,30.05,South,190,0.0,0.0,96,0.00,,,0.25,,2013-01-28 22:23:00,
2013-01-28 16:32:00,55.0,54.0,30.05,South,173,0.0,0.0,96,0.00,,,0.23,,2013-01-28 22:32:00,
2013-01-28 16:42:00,55.0,54.0,30.05,South,173,0.0,0.0,96,0.00,,,0.23,,2013-01-28 22:42:00,
2013-01-28 16:52:00,55.0,54.0,30.06,South,180,0.0,6.0,96,0.00,,,0.23,,2013-01-28 22:52:00,
2013-01-28 17:02:00,55.0,54.0,30.06,South,188,0.0,0.0,96,0.00,,,0.23,,2013-01-28 23:02:00,
2013-01-28 17:12:00,55.0,54.0,30.06,South,188,0.0,0.0,96,0.00,,,0.23,,2013-01-28 23:12:00,
2013-01-28 17:22:00,55.0,54.0,30.06,South,188,0.0,0.0,97,0.00,,,0.23,,2013-01-28 23:22:00,
2013-01-28 17:32:00,55.0,54.0,30.05,South,178,5.0,11.0,97,0.00,,,0.17,,2013-01-28 23:32:00,
2013-01-28 17:42:00,55.0,54.0,30.05,South,178,5.0,11.0,97,0.00,,,0.17,,2013-01-28 23:42:00,
2013-01-28 17:52:00,55.0,54.0,30.05,South,180,4.0,10.0,97,0.00,,,0.17,,2013-01-28 23:52:00,
2013-01-28 18:02:00,56.0,55.0,30.05,SSE,161,1.0,10.0,97,0.00,,,0.17,,2013-01-29 00:02:00,
2013-01-28 18:12:00,56.0,55.0,30.05,SSE,161,1.0,10.0,97,0.00,,,0.17,,2013-01-29 00:12:00,
2013-01-28 18:22:00,56.0,55.0,30.05,South,188,0.0,5.0,97,0.00,,,0.17,,2013-01-29 00:22:00,
2013-01-28 18:32:00,55.0,54.0,30.06,South,171,0.0,1.0,97,0.00,,,0.13,,2013-01-29 00:32:00,
2013-01-28 18:42:00,55.0,54.0,30.06,South,171,0.0,1.0,97,0.00,,,0.13,,2013-01-29 00:42:00,
2013-01-28 18:52:00,55.0,54.0,30.05,SSE,160,0.0,10.0,97,0.00,,,0.13,,2013-01-29 00:52:00,
2013-01-28 19:02:00,56.0,55.0,30.05,South,173,0.0,0.0,97,0.00,,,0.13,,2013-01-29 01:02:00,
2013-01-28 19:12:00,56.0,55.0,30.05,South,173,0.0,0.0,97,0.00,,,0.13,,2013-01-29 01:12:00,
2013-01-28 19:23:00,56.0,55.0,30.05,South,177,0.0,1.0,97,0.00,,,0.13,,2013-01-29 01:23:00,
2013-01-28 19:32:00,56.0,55.0,30.05,South,177,0.0,1.0,97,0.00,,,0.13,,2013-01-29 01:32:00,
2013-01-28 19:42:00,56.0,55.0,30.05,South,177,0.0,1.0,97,0.00,,,0.13,,2013-01-29 01:42:00,
2013-01-28 19:52:00,56.0,55.0,30.05,South,178,1.0,7.0,97,0.00,,,0.09,,2013-01-29 01:52:00,
2013-01-28 20:02:00,56.0,55.0,30.05,SSE,151,0.0,1.0,97,0.00,,,0.09,,2013-01-29 02:02:00,
2013-01-28 20:12:00,56.0,55.0,30.05,SSE,151,0.0,1.0,97,0.00,,,0.09,,2013-01-29 02:12:00,
2013-01-28 20:22:00,56.0,55.0,30.05,SSE,151,1.0,6.0,97,0.00,,,0.09,,2013-01-29 02:22:00,
2013-01-28 20:33:00,56.0,55.0,30.04,SSE,162,0.0,1.0,96,0.00,,,0.09,,2013-01-29 02:33:00,
2013-01-28 20:42:00,56.0,55.0,30.04,SSE,162,0.0,1.0,96,0.00,,,0.09,,2013-01-29 02:42:00,
2013-01-28 20:52:00,56.0,55.0,30.05,SSE,167,0.0,5.0,96,0.00,,,0.09,,2013-01-29 02:52:00,
2013-01-28 21:03:00,56.0,55.0,30.05,SSE,162,0.0,1.0,96,0.00,,,0.09,,2013-01-29 03:03:00,
2013-01-28 21:12:00,56.0,55.0,30.05,SSE,162,0.0,1.0,96,0.00,,,0.09,,2013-01-29 03:12:00,
2013-01-28 21:22:00,56.0,55.0,30.05,South,181,0.0,1.0,96,0.00,,,0.09,,2013-01-29 03:22:00,
2013-01-28 21:32:00,56.0,55.0,30.04,SE,124,1.0,5.0,95,0.00,,,0.07,,2013-01-29 03:32:00,
2013-01-28 21:42:00,56.0,55.0,30.04,SE,124,1.0,5.0,95,0.00,,,0.07,,2013-01-29 03:42:00,
2013-01-28 21:52:00,56.0,55.0,30.04,South,169,0.0,0.0,95,0.00,,,0.07,,2013-01-29 03:52:00,
2013-01-28 22:02:00,56.0,54.0,30.03,SSE,160,0.0,0.0,94,0.00,,,0.07,,2013-01-29 04:02:00,
2013-01-28 22:11:00,56.0,54.0,30.03,SSE,160,0.0,0.0,94,0.00,,,0.07,,2013-01-29 04:11:00,
2013-01-28 22:22:00,56.0,54.0,30.03,South,174,2.0,7.0,94,0.00,,,0.07,,2013-01-29 04:22:00,
2013-01-28 22:32:00,55.0,53.0,30.03,SSW,209,0.0,2.0,94,0.00,,,0.06,,2013-01-29 04:32:00,
2013-01-28 22:42:00,55.0,53.0,30.03,SSW,209,0.0,2.0,94,0.00,,,0.06,,2013-01-29 04:42:00,
2013-01-28 22:52:00,55.0,53.0,30.03,South,182,0.0,0.0,94,0.00,,,0.06,,2013-01-29 04:52:00,
2013-01-28 23:03:00,55.0,53.0,30.03,South,175,1.0,7.0,94,0.00,,,0.06,,2013-01-29 05:03:00,
2013-01-28 23:12:00,55.0,53.0,30.03,South,175,1.0,7.0,94,0.00,,,0.06,,2013-01-29 05:12:00,
2013-01-28 23:21:00,55.0,53.0,30.03,South,171,0.0,0.0,93,0.00,,,0.06,,2013-01-29 05:21:00,
2013-01-28 23:32:00,55.0,53.0,30.03,South,169,0.0,1.0,92,0.00,,,0.05,,2013-01-29 05:32:00,
2013-01-28 23:42:00,55.0,53.0,30.03,South,169,0.0,1.0,92,0.00,,,0.05,,2013-01-29 05:42:00,
2013-01-28 23:52:00,55.0,53.0,30.03,SSE,167,5.0,11.0,92,0.00,,,0.05,,2013-01-29 05:52:00,